Back to catalog

UNKNOWN PAYLOAD

AliveSSO
NORAD 58927·DEBRIS·🇨🇳 China
This satellite name has not been confirmed by official sources yet.

Launched Feb 3, 2024 from South China Sea Launch Area

Loading…

Next Passes (next 24 hours)

TLE

FreshSource: Space-Track

Epoch: Sep 14, 2026, 11:11 UTC

1 58927U 24024L   26257.46654412  .00029920  00000-0  86710-3 0  9994
2 58927  97.2982 323.6679 0005054 205.8167 154.2826 15.35494528122042

Track UNKNOWN PAYLOAD in real time with AllMySat

Download on the App Store